Stations météo

réclame
Mon MeteoGroup
Beauvais, France (7055): Température de l'air & dewpoint: 12.06.2018 03:00:00 - 18.06.2018 03:00:00 (CEST)Beauvais, France (7055): Température de l'air 5cm: 12.06.2018 03:00:00 - 18.06.2018 03:00:00 (CEST)Beauvais, France (7055): Température de l'air -20cm & Température de l'air -100cm: 12.06.2018 03:00:00 - 18.06.2018 03:00:00 (CEST)Beauvais, France (7055): Vitesse du vent & gusts: 12.06.2018 03:00:00 - 18.06.2018 03:00:00 (CEST)Beauvais, France (7055): Direction du vent: 12.06.2018 03:00:00 - 18.06.2018 03:00:00 (CEST)Beauvais, France (7055): reduced air pressure: 12.06.2018 03:00:00 - 18.06.2018 03:00:00 (CEST)Beauvais, France (7055): visibility: 12.06.2018 03:00:00 - 18.06.2018 03:00:00 (CEST)Beauvais, France (7055): Ensoleillement: 12.06.2018 03:00:00 - 18.06.2018 03:00:00 (CEST)Beauvais, France (7055): Quantités de précipitations: 12.06.2018 03:00:00 - 18.06.2018 03:00:00 (CEST)
Date & Time tt [°C] td [°C] tt 5cm [°C] tt -20cm [°C] tt -100cm [°C] ff [km/h] ff [knt] fx [km/h] fx [knt] dd ppp [hPa] vv [km] sd [min] rr [mm]
18.06.2018 03:00:00 15,9 13,2 15,0 17,2 16,1 12 7 18 10 WSW 1020,8 25 0 0,0
18.06.2018 02:00:00 14,7 12,2 14,9 17,2 16,1 4 2 9 5 WSW 1020,9 24 0 0,0
18.06.2018 01:00:00 15,3 12,2 15,4 17,2 16,1 4 2 7 4 S 1020,8 22 0 0,0
18.06.2018 00:00:00 16,0 12,9 16,5 17,2 16,1 3 2 8 4 SW 1021,0 21 0 0,0
17.06.2018 23:00:00 16,3 12,5 16,4 17,2 16,1 6 3 27 14 SSW 1021,1 22 0 0,0
17.06.2018 22:00:00 17,5 11,5 17,1 17,2 16,1 9 5 16 9 W 1020,7 30 0 0,0
17.06.2018 21:00:00 18,1 11,4 17,3 17,2 16,1 8 5 19 10 SW 1020,2 16 0 0,0
17.06.2018 20:00:00 18,6 10,7 17,9 17,1 16,1 13 7 22 12 SW 1020,2 31 0 0,0
17.06.2018 19:00:00 18,8 10,6 18,5 17,1 16,1 16 9 27 15 SW 1020,1 35 12 0,0
17.06.2018 18:00:00 19,5 10,8 19,8 17,1 16,1 11 6 36 19 SW 1019,8 35 13 0,0
17.06.2018 17:00:00 18,9 10,5 20,9 17,1 16,1 12 7 30 16 WSW 1020,2 19 19 0,0
17.06.2018 16:00:00 19,3 10,8 19,6 17,1 16,1 16 9 27 15 WSW 1020,0 20 19 0,0
17.06.2018 15:00:00 17,7 10,3 19,6 17,1 16,1 13 7 30 16 WSW 1020,3 30 3 0,0
17.06.2018 14:00:00 17,6 10,7 20,0 17,2 16,1 16 9 32 17 WSW 1020,1 30 21 0,0
17.06.2018 13:00:00 17,2 10,6 17,6 17,2 16,1 17 9 28 15 WSW 1020,4 20 5 0,0
17.06.2018 12:00:00 15,9 10,0 17,8 17,2 16,1 18 10 31 17 W 1020,3 37 2 0,0
17.06.2018 11:00:00 15,9 10,4 17,4 17,2 16,1 17 9 29 16 SW 1020,1 20 6 0,0
17.06.2018 10:00:00 15,3 10,7 15,7 17,3 16,1 15 8 25 14 WSW 1020,2 19 10 0,0
17.06.2018 09:00:00 14,2 10,0 15,6 17,3 16,1 15 8 23 12 WSW 1020,0 18 14 0,0
17.06.2018 08:00:00 13,7 10,3 14,5 17,3 16,1 14 8 21 11 WSW 1019,3 19 60 0,0
17.06.2018 07:00:00 12,4 10,5 12,8 17,3 16,1 8 4 12 6 SW 1019,0 20 27 0,0
17.06.2018 06:00:00 11,7 9,4 13,0 17,3 16,1 9 5 15 8 WSW 1019,0 29 0 0,0
17.06.2018 05:00:00 12,5 10,2 14,5 17,3 16,2 8 4 23 12 W 1018,8 19 0 0,0
17.06.2018 04:00:00 13,5 10,8 14,1 17,3 16,1 14 7 26 14 W 1018,5 26 0 0,0
17.06.2018 03:00:00 13,1 11,7 12,9 17,3 16,1 10 5 15 8 W 1018,5 26 0 0,0
17.06.2018 02:00:00 12,3 10,9 13,2 17,3 16,1 9 5 14 8 WNW 1018,0 22 0 0,0
17.06.2018 01:00:00 12,9 11,5 12,9 17,3 16,1 9 5 14 8 W 1017,8 20 0 0,0
17.06.2018 00:00:00 12,9 11,0 12,9 17,3 16,1 0 0 5 3 N 1017,7 19 0 0,0
16.06.2018 23:00:00 13,5 10,8 13,4 17,3 16,1 4 2 6 4 WSW 1017,6 8 0 0,0
16.06.2018 22:00:00 15,6 11,4 15,0 17,2 16,1 5 3 10 5 WNW 1017,2 33 15 0,0
16.06.2018 21:00:00 18,3 11,8 18,5 17,2 16,1 8 4 18 10 WNW 1017,1 36 0 0,0
16.06.2018 20:00:00 19,3 10,6 19,5 17,2 16,1 15 8 27 15 W 1016,7 37 0 0,0
16.06.2018 19:00:00 20,0 10,4 20,7 17,1 16,1 16 8 29 16 W 1016,5 46 19 0,0
16.06.2018 18:00:00 20,1 10,8 21,6 17,1 16,2 17 9 27 14 W 1016,4 42 14 0,0
16.06.2018 17:00:00 20,2 10,6 22,6 17,1 16,2 16 9 28 15 W 1016,5 35 15 0,0
16.06.2018 16:00:00 20,1 10,2 23,0 17,1 16,2 14 7 33 18 W 1016,3 20 20 0,0
16.06.2018 15:00:00 19,6 10,0 24,4 17,1 16,2 14 8 27 15 W 1016,5 20 27 0,0
16.06.2018 14:00:00 19,9 10,6 24,8 17,1 16,2 13 7 46 25 W 1016,6 20 37 0,0
16.06.2018 13:00:00 19,8 11,0 22,2 17,1 16,2 12 7 30 16 SW 1016,7 20 52 0,0
16.06.2018 12:00:00 17,8 10,4 21,6 17,1 16,2 11 6 22 12 SW 1017,2 24 41 0,0
16.06.2018 11:00:00 17,0 10,4 19,5 17,1 16,2 12 7 23 13 W 1017,4 18 45 0,0
16.06.2018 10:00:00 15,2 11,0 16,4 17,1 16,2 6 4 25 14 WNW 1017,5 17 35 0,0
16.06.2018 09:00:00 13,5 10,8 16,0 17,2 16,2 11 6 23 12 WNW 1017,6 20 0 0,0
16.06.2018 08:00:00 12,8 10,5 14,8 17,2 16,2 11 6 16 9 W 1017,3 20 0 0,0
16.06.2018 07:00:00 12,2 10,9 13,7 17,2 16,2 3 1 5 3 S 1016,9 19 12 0,0
16.06.2018 06:00:00 11,5 10,4 13,0 17,2 16,2 0 0 4 2 N 1017,2 11 0 0,0
16.06.2018 05:00:00 10,9 9,7 12,5 17,3 16,2 2 1 9 5 W 1017,1 26 0 0,0
16.06.2018 04:00:00 11,0 9,4 12,6 17,3 16,2 7 4 9 5 WNW 1017,2 27 0 0,0
16.06.2018 03:00:00 11,3 9,7 12,7 17,3 16,2 0 0 8 5 N 1017,6 25 0 0,0
16.06.2018 02:00:00 11,0 9,7 11,0 17,2 16,2 6 3 12 7 WNW 1018,2 20 0 0,0
16.06.2018 01:00:00 11,0 9,3 11,2 17,2 16,2 5 3 10 5 NNW 1017,8 21 0 0,0
16.06.2018 00:00:00 11,2 9,5 12,0 17,2 16,2 6 3 10 6 NW 1017,8 26 0 0,0
15.06.2018 23:00:00 12,5 10,2 12,6 17,2 16,2 3 2 13 7 NW 1017,7 25 0 0,0
15.06.2018 22:00:00 14,4 10,8 16,3 17,1 16,2 13 7 18 10 NNW 1017,5 31 0 0,0
15.06.2018 21:00:00 16,6 11,5 17,5 17,1 16,2 14 8 33 18 NNW 1017,1 38 5 0,0
15.06.2018 20:00:00 19,7 13,4 19,3 17,0 16,2 21 11 31 17 NNW 1016,7 17 58 0,0
15.06.2018 19:00:00 21,3 11,6 21,3 17,0 16,2 11 6 18 10 NW 1016,4 20 48 0,0
15.06.2018 18:00:00 22,4 11,8 22,2 16,9 16,2 12 7 20 11 NW 1016,5 20 33 0,0
15.06.2018 17:00:00 21,5 11,2 22,2 16,9 16,2 10 6 19 10 WNW 1016,6 44 31 0,0
15.06.2018 16:00:00 20,9 11,0 22,3 16,9 16,3 4 2 23 12 NW 1017,0 20 12 0,0
15.06.2018 15:00:00 21,1 11,1 24,5 16,9 16,2 9 5 16 9 NW 1017,0 32 43 0,0
15.06.2018 14:00:00 21,7 11,1 24,2 16,9 16,2 3 2 14 8 NW 1017,2 19 40 0,0
15.06.2018 13:00:00 20,6 13,1 22,9 16,9 16,3 6 3 12 7 NNW 1017,4 23 32 0,0
15.06.2018 12:00:00 20,2 11,7 22,0 16,9 16,3 4 2 16 8 SW 1017,5 14 49 0,0
15.06.2018 11:00:00 18,5 11,6 20,3 17,0 16,3 7 4 17 9 WSW 1017,7 19 60 0,0
15.06.2018 10:00:00 16,9 12,6 16,9 17,0 16,3 8 4 18 10 W 1017,8 17 58 0,0
15.06.2018 09:00:00 14,6 11,6 15,0 17,1 16,3 11 6 17 9 WSW 1017,7 17 60 0,0
15.06.2018 08:00:00 12,5 11,6 11,2 17,1 16,3 9 5 14 8 W 1017,7 15 60 0,0
15.06.2018 07:00:00 9,4 9,1 8,5 17,1 16,3 0 0 5 3 N 1017,6 14 27 0,0
15.06.2018 06:00:00 7,4 6,8 8,3 17,1 16,3 2 1 5 3 WSW 1017,4 0,4 0 0,0
15.06.2018 05:00:00 8,5 7,9 8,4 17,2 16,3 3 2 4 2 W 1017,4 2,6 0 0,2
15.06.2018 04:00:00 9,2 8,6 9,4 17,2 16,3 0 0 8 4 N 1017,4 14 0 0,0
15.06.2018 03:00:00 9,8 8,9 9,8 17,1 16,3 6 3 8 5 W 1017,5 6 0 0,0
15.06.2018 02:00:00 11,5 10,4 11,2 17,1 16,3 6 3 8 5 W 1017,6 14 0 0,0
15.06.2018 01:00:00 12,7 11,3 12,6 17,2 16,3 6 3 11 6 NW 1017,7 19 0 0,0
15.06.2018 00:00:00 14,2 12,8 13,3 17,1 16,3 9 5 16 9 W 1017,7 18 0 0,0
14.06.2018 23:00:00 14,8 13,2 13,5 17,1 16,3 7 4 11 6 WSW 1017,5 18 0 0,0
14.06.2018 22:00:00 16,6 14,6 16,8 17,1 16,3 8 4 18 10 SW 1016,9 31 0 0,0
14.06.2018 21:00:00 17,3 14,8 17,5 17,1 16,4 11 6 27 15 WSW 1016,4 35 0 0,0
14.06.2018 20:00:00 17,9 14,6 18,0 17,1 16,4 11 6 26 14 WSW 1015,9 33 0 0,0
14.06.2018 19:00:00 17,9 14,0 17,9 17,1 16,4 14 8 26 14 WSW 1015,7 25 0 0,0
14.06.2018 18:00:00 18,3 13,6 18,0 17,1 16,4 17 9 29 16 W 1015,6 27 0 0,0
14.06.2018 17:00:00 18,8 13,0 18,2 17,1 16,4 20 11 31 17 WSW 1015,4 28 0 0,0
14.06.2018 16:00:00 19,1 12,4 18,7 17,1 16,4 19 10 29 16 SW 1015,3 35 0 0,0
14.06.2018 15:00:00 19,6 14,2 19,4 17,1 16,4 20 11 32 18 SSW 1015,4 19 7 0,0
14.06.2018 14:00:00 18,3 13,6 17,0 17,1 16,4 20 11 33 18 S 1015,5 19 0 0,0
14.06.2018 13:00:00 17,0 12,9 16,9 17,2 16,4 15 8 31 17 SSW 1015,9 30 0 0,0
14.06.2018 12:00:00 17,2 12,1 16,7 17,2 16,4 19 10 30 16 SSW 1016,0 39 0 0,0
14.06.2018 11:00:00 16,3 11,0 16,3 17,2 16,4 16 9 28 15 SSW 1016,1 37 0 0,0
14.06.2018 10:00:00 16,0 10,7 16,3 17,3 16,4 15 8 24 13 SSW 1016,3 33 11 0,0
14.06.2018 09:00:00 15,0 11,4 15,4 17,3 16,4 9 5 17 9 SSW 1016,1 24 11 0,0
14.06.2018 08:00:00 13,5 12,2 12,0 17,4 16,4 5 3 10 5 S 1016,3 18 57 0,0
14.06.2018 07:00:00 9,7 9,4 9,1 17,4 16,4 5 3 7 4 ESE 1016,7 5 27 0,0
14.06.2018 06:00:00 8,1 7,5 8,5 17,4 16,4 4 2 5 3 ESE 1017,0 1,2 0 0,0
14.06.2018 05:00:00 8,2 7,6 8,7 17,5 16,4 3 2 4 2 ESE 1017,3 1,1 0 0,0
14.06.2018 04:00:00 8,8 8,2 9,0 17,5 16,4 0 0 3 2 N 1017,7 14 0 0,0
14.06.2018 03:00:00 9,0 8,1 9,5 17,5 16,4 2 1 3 2 NNE 1018,0 15 0 0,0
14.06.2018 02:00:00 9,7 8,6 10,4 17,6 16,4 2 1 3 1 NE 1018,2 20 0 0,0
14.06.2018 01:00:00 9,9 8,7 10,1 17,5 16,4 0 0 4 2 N 1018,5 19 0 0,0
14.06.2018 00:00:00 11,0 9,4 10,9 17,6 16,4 0 0 3 2 N 1018,8 20 0 0,0
13.06.2018 23:00:00 12,2 10,3 12,2 17,5 16,4 3 1 9 5 SSW 1018,9 20 0 0,0
13.06.2018 22:00:00 13,6 10,2 13,1 17,5 16,5 7 4 9 5 S 1018,6 22 0 0,0
13.06.2018 21:00:00 16,1 11,5 15,8 17,5 16,4 5 3 11 6 SSE 1018,4 23 20 0,0
13.06.2018 20:00:00 17,4 8,8 17,1 17,5 16,4 4 2 10 6 NE 1018,4 25 8 0,0
13.06.2018 19:00:00 19,0 9,2 18,7 17,5 16,4 4 2 10 5 NNE 1018,2 18 33 0,0
13.06.2018 18:00:00 18,3 9,1 19,0 17,5 16,4 4 2 19 11 NE 1018,4 20 23 0,0
13.06.2018 17:00:00 17,9 10,5 19,7 17,5 16,5 6 3 17 9 WNW 1018,8 19 2 0,0
13.06.2018 16:00:00 17,0 10,6 18,2 17,6 16,4 8 4 17 9 WNW 1019,1 20 0 0,0
13.06.2018 15:00:00 16,4 10,3 17,7 17,6 16,4 9 5 25 14 N 1019,3 29 0 0,0
13.06.2018 14:00:00 16,3 10,4 18,4 17,6 16,5 10 5 21 12 N 1019,4 36 7 0,0
13.06.2018 13:00:00 16,1 10,6 16,5 17,7 16,4 13 7 28 15 N 1019,3 24 0 0,0
13.06.2018 12:00:00 14,6 9,8 16,2 17,7 16,4 9 5 21 11 N 1019,5 28 0 0,0
13.06.2018 11:00:00 14,3 10,7 15,2 17,7 16,5 14 7 27 15 N 1019,3 20 0 0,0
13.06.2018 10:00:00 13,1 10,5 15,2 17,8 16,4 16 9 32 17 N 1018,9 18 0 0,0
13.06.2018 09:00:00 12,6 10,5 15,6 17,8 16,5 14 8 26 14 NNW 1018,9 16 16 0,0
13.06.2018 08:00:00 12,1 10,5 14,0 17,9 16,5 15 8 24 13 NNW 1018,7 11 60 0,0
13.06.2018 07:00:00 10,0 9,2 12,0 17,9 16,5 9 5 14 8 NNW 1018,6 11 27 0,0
13.06.2018 06:00:00 9,0 8,2 11,9 17,9 16,5 8 4 14 8 NNW 1018,5 9 0 0,0
13.06.2018 05:00:00 9,4 8,9 10,0 17,9 16,5 10 6 16 8 NNW 1018,6 15 0 0,2
13.06.2018 04:00:00 8,6 8,0 9,9 18,0 16,5 13 7 16 9 NNW 1018,4 18 0 0,0
13.06.2018 03:00:00 9,3 8,2 11,4 17,9 16,5 10 5 16 9 NNW 1018,1 18 0 0,0
13.06.2018 02:00:00 9,9 8,7 13,3 18,0 16,5 10 6 18 10 NNW 1017,9 19 0 0,0
13.06.2018 01:00:00 11,2 9,5 14,5 18,0 16,5 13 7 20 11 NW 1017,9 19 0 0,0
13.06.2018 00:00:00 12,8 10,0 15,3 18,0 16,5 13 7 23 13 NNW 1017,5 22 0 0,0
12.06.2018 23:00:00 13,4 10,4 15,3 18,0 16,5 12 6 32 17 N 1017,4 22 0 0,0
12.06.2018 22:00:00 14,7 11,1 15,5 18,0 16,5 22 12 35 19 N 1016,4 18 0 0,0
12.06.2018 21:00:00 16,0 12,4 16,4 18,0 16,5 21 11 37 20 N 1015,4 14 0 0,0
12.06.2018 20:00:00 17,4 13,3 17,2 18,0 16,5 23 12 41 22 N 1014,6 12 14 0,0
12.06.2018 19:00:00 18,2 14,7 17,5 18,0 16,5 7 4 18 10 N 1013,7 8 0 0,0
12.06.2018 18:00:00 18,3 13,8 17,8 18,0 16,5 11 6 18 10 NNE 1013,5 10 0 0,0
12.06.2018 17:00:00 17,9 14,2 17,6 18,0 16,5 11 6 22 12 NNE 1013,8 9 0 0,0
12.06.2018 16:00:00 18,1 13,8 17,9 18,0 16,5 14 7 31 17 NNE 1013,8 9 0 0,0
12.06.2018 15:00:00 17,7 14,6 17,4 18,0 16,5 18 10 28 15 NNE 1013,7 9 0 0,0
12.06.2018 14:00:00 16,8 14,1 17,5 18,1 16,5 18 10 29 15 NNE 1013,7 9 0 0,8
12.06.2018 13:00:00 16,4 14,8 17,3 18,1 16,5 16 8 36 19 NNE 1013,2 4,4 0 0,4
12.06.2018 12:00:00 16,5 14,9 17,1 18,1 16,5 15 8 24 13 NNE 1012,7 6 0 0,2
12.06.2018 11:00:00 16,2 14,7 16,6 18,1 16,5 15 8 23 12 NE 1012,2 5 0 1,2
12.06.2018 10:00:00 15,8 14,8 16,1 18,2 16,5 16 8 27 14 NNE 1011,8 3,6 0 1,4
12.06.2018 09:00:00 15,6 14,6 16,1 18,2 16,5 14 7 26 14 NNE 1011,3 4,1 0 1,2
12.06.2018 08:00:00 15,6 14,6 16,1 18,2 16,5 15 8 23 12 NNE 1010,7 3,6 0 0,8
12.06.2018 07:00:00 15,6 14,6 16,0 18,2 16,5 13 7 19 11 NNE 1010,1 3,9 0 0,6
12.06.2018 06:00:00 15,7 14,6 15,9 18,2 16,5 15 8 21 12 NNE 1009,7 5 0 0,2
12.06.2018 05:00:00 15,7 14,6 15,8 18,3 16,5 14 7 22 12 NNE 1009,5 6 0 0,0
12.06.2018 04:00:00 15,5 13,9 15,7 18,3 16,5 15 8 25 13 NNE 1009,5 8 0 0,2
12.06.2018 03:00:00 15,5 13,9 15,9 18,3 16,5 14 8 23 12 NNE 1009,5 8 0 0,0

tt = Température de l'air
td = dewpoint
tt 5cm = Température de l'air 5cm
tt -20cm = Température de l'air -20cm
tt -100cm = Température de l'air -100cm
ff = Vitesse du vent
fx = gusts
dd = Direction du vent
ppp = reduced air pressure
vv = visibility
sd = Ensoleillement
rr = Quantités de précipitations

stations d'obs. à proximité